www.pogodaiklimat.ru

Погода и климат >> Архив погоды >> Беларусь >> Гомель


АРХИВ ПОГОДЫ в Гомеле

Время (UTC), дата Ветер
(напр.,м/с)
 
Видим.   Явления Облачность Т
(С)
Тd
(С)
f
(%)
Тe
(С)
Тes
(С)
Комфортность P
(гПа)
Po
(гПа)
Тmin
(С)
Tmax
(С)
R
(мм)
R24
(мм)
S
(см)
09 18.08 З 4
{10}
27 км 8/4 1000 м
[Cu hum Ac trans]
+19.0 +12.5 66 +20 +23 по сезону 1012.4 997.6
12 18.08 З 3
{10}
29 км 9/5 1000 м
[Cu hum Ac trans Ci]
+21.9 +11.9 53 +24 +27 комфорт 1012.7 998.1
15 18.08 СЗ 2 35 км 3/0
[Ac trans Ci fib]
+23.2 +12.3 50 +26 +28 жарко 1013.5 998.9
18 18.08 штиль 0 25 км ясно +17.0 +13.0 77 +17 +17 прохладно 1014.9 999.9 +23.3
21 18.08 штиль 0 8000 м дымка ясно +14.0 +13.2 95 +14 +14 прохладно 1016.0 1000.9
00 19.08 штиль 0 2300 м туман поземный ясно +12.3 +12.1 99 +12 +12 прохладно 1016.8 1001.5
03 19.08 ЮЗ 1 8000 м дымка 3/0
[Ci fib]
+11.9 +10.6 92 +12 +12 прохладно 1017.8 1002.5
06 19.08 штиль 0 22 км 1/0
[Ci fib]
+18.0 +13.5 75 +18 +24 тепло 1018.4 1003.5 +11.7
09 19.08 Ю 2 30 км ясно +25.5 +13.3 47 +28 +40 жарко 1018.1 1003.6
12 19.08 Ю 2 30 км ясно +27.1 +12.5 40 +29 +39 жарко 1018.1 1003.7
15 19.08 ЮВ 1 35 км 3/0
[Ci fib]
+27.6 +12.0 38 +29 +31 жарко 1018.2 1003.8
18 19.08 штиль 0 29 км 4/0
[Ci fib]
+21.8 +14.3 62 +25 +25 комфорт 1019.3 1004.6 +28.0
21 19.08 штиль 0 20 км 3/0
[Ci fib]
+19.3 +13.6 70 +21 +21 комфорт 1020.0 1005.1
00 20.08 штиль 0 17 км 3/0
[Ci fib]
+18.1 +13.6 75 +18 +18 тепло 1020.0 1005.0
03 20.08 ЮВ 1 30 км 3/0
[Ci fib]
+16.0 +12.8 81 +17 +17 тепло 1021.0 1005.9
06 20.08 Ю 1 27 км 3/0
[Ci fib]
+20.9 +13.5 63 +25 +30 комфорт 1021.8 1007.0 +15.1
09 20.08 ЮВ 1 35 км ясно +26.1 +16.1 54 +29 +43 жарко 1021.9 1007.4
12 20.08 Ю 1 35 км 3/3 1000 м
[Cu hum]
+29.3 +15.8 44 +32 +40 душно 1021.1 1006.8
15 20.08 Ю 1 35 км 4/3 1000 м
[Cu hum Ac trans]
+30.5 +16.5 43 +34 +35 очень
душно
1021.0 1006.7
18 20.08 С 2 22 км 4/0
[Ac trans Ci fib]
+25.6 +18.5 65 +30 +30 душно 1022.3 1007.7 +30.9
21 20.08 штиль 0 15 км 4/0
[Ci fib]
+22.2 +19.0 82 +28 +28 душно 1023.0 1008.2
00 21.08 штиль 0 10 км 6/0
[Ac trans Ci]
+19.8 +18.2 90 +22 +22 комфорт 1023.0 1008.1
03 21.08 штиль 0 5000 м дымка 8/0
[Ac trans Ci]
+17.8 +17.3 97 +18 +18 тепло 1023.3 1008.3
06 21.08 ЮВ 1 29 км 8/0
[Ac trans Ci]
+23.3 +16.8 67 +28 +32 душно 1023.3 1008.6 +17.6
09 21.08 Ю 2 30 км 8/0
[Ci]
+29.1 +15.7 44 +32 +42 душно 1022.4 1008.0
12 21.08 Ю 3 35 км 3/0
[Ci fib]
+31.1 +15.0 38 +33 +41 душно 1020.7 1006.5
15 21.08 ЮВ 2 35 км ясно +30.5 +14.2 37 +32 +34 жарко 1019.8 1005.6
18 21.08 ЮВ 1 30 км ясно +25.2 +15.6 55 +28 +28 жарко 1020.1 1005.5 +31.2
21 21.08 штиль 0 25 км ясно +21.0 +15.9 73 +24 +24 комфорт 1020.4 1005.6
00 22.08 СЗ 3 19 км 1/0
[Ci fib]
+20.4 +17.0 81 +24 +24 комфорт 1021.0 1006.2
03 22.08 СЗ 4 12 км 8/5 300 м
[Sc Ac trans Ci]
+16.4 +14.4 88 +16 +16 по сезону 1022.8 1007.7
06 22.08 С 5-10
{11}
35 км 10/10 500 м
[Sc]
+17.7 +13.9 78 +17 +17 по сезону 1024.5 1009.4 +16.3
09 22.08 С 5-10
{11}
35 км 10/10 570 м
[Sc]
+17.7 +13.8 78 +17 +17 прохладно 1026.0 1010.9
12 22.08 С 4
{10}
27 км 8/6 960 м
[Sc Ac trans Ci]
+20.9 +13.5 63 +24 +26 комфорт 1025.9 1011.0
15 22.08 С 3 30 км 5/3 1000 м
[Sc Ac trans Ci fib]
+22.2 +13.2 57 +25 +26 комфорт 1025.6 1010.8
18 22.08 С 2 23 км 6/0
[Ci]
+18.9 +12.7 67 +20 +20 тепло 1026.7 1011.7 +22.7
21 22.08 С 2 15 км 4/0
[Ci fib]
+16.7 +12.3 75 +17 +17 по сезону 1027.5 1012.3
00 23.08 С 2 12 км 3/0
[Ci fib]
+14.5 +11.7 83 +14 +14 по сезону 1028.4 1013.1
03 23.08 С 2 10 км 8/0
[Ci]
+13.5 +11.1 85 +13 +13 по сезону 1028.8 1013.4
06 23.08 С 2 18 км 9/0
[Ci]
+15.5 +11.2 76 +15 +19 по сезону 1029.3 1014.0 +13.0
09 23.08 С 3 19 км 4/0
[Ci sp]
+20.5 +11.3 56 +23 +32 комфорт 1029.0 1014.0
12 23.08 С 3 20 км 8/0
[Ac trans Ci]
+22.1 +10.3 47 +24 +30 комфорт 1028.0 1013.2
15 23.08 СВ 1 35 км 3/0
[Ac trans Ci fib]
+23.4 +9.9 42 +25 +27 комфорт 1027.1 1012.3
18 23.08 С 1 23 км 3/0
[Ci fib]
+19.5 +10.7 57 +22 +22 комфорт 1027.5 1012.5 +23.6
21 23.08 штиль 0 25 км ясно +15.9 +10.6 71 +16 +16 по сезону 1027.6 1012.4
00 24.08 штиль 0 20 км ясно +13.6 +10.9 84 +13 +13 по сезону 1027.8 1012.5
03 24.08 С 1 9000 м дымка ясно +10.8 +9.8 94 +10 +10 прохладно 1028.2 1012.7
06 24.08 штиль 0 19 км ясно +18.3 +11.8 66 +19 +25 тепло 1028.1 1013.0 +10.5
09 24.08 СВ 1 30 км ясно +22.4 +10.1 46 +24 +38 комфорт 1027.4 1012.6
12 24.08 СЗ 2 35 км 1/0
[Ci fib]
+24.3 +9.9 40 +25 +35 комфорт 1026.0 1011.3
15 24.08 С 2 35 км 3/0
[Ci fib]
+24.8 +9.7 38 +26 +27 жарко 1025.1 1010.5
18 24.08 С 1 20 км 4/0
[Ci fib]
+20.5 +11.0 54 +23 +23 комфорт 1025.9 1011.0 +25.4
21 24.08 штиль 0 10 км 3/0
[Ci fib]
+15.0 +12.2 83 +15 +15 по сезону 1026.2 1011.0
00 25.08 штиль 0 10 км ясно +13.1 +11.4 89 +13 +13 по сезону 1026.8 1011.4
03 25.08 штиль 0 6000 м дымка ясно +11.6 +10.9 95 +11 +11 прохладно 1027.3 1011.8
06 25.08 С 1 30 км ясно +19.7 +13.1 66 +22 +28 комфорт 1027.5 1012.5 +11.4

 

Местоположение метеостанции Гомель (Гомельская область, Беларусь): широта 52.40 долгота 30.96 высота над уровнем моря 126 м.

В архиве по умолчанию представлена погода в Гомеле за последнюю неделю. Архивные данные за месяц целиком и за предыдущие месяцы, начиная с января 2011 года, Вы можете получить, выбрав интересующий диапазон дат из раскрывающегося списка и нажав кнопку "Ввод!".


*Определитесь, кто Вы:
робот инопланетянин человек

Внимание! Время в таблицах - всемирное. Для получения местного времени необходимо прибавить поправку, которая равна 3 ч.

Смотрите также архив погоды в соседних городах и на ближайших метеорологических станциях:

Погода в Василевичах (Гомельская область, Беларусь) (78 км)
Погода в Красной Горе (Брянская область, Россия) (81 км)
Погода в Брагине (Гомельская область, Беларусь) (83 км)
Погода в Жлобине (Гомельская область, Беларусь) (84 км)
Погода в Щорсе (Черниговская область, Украина) (96 км)
Погода в Чернигове (Черниговская область, Украина) (105 км)
Погода в Семеновке (Черниговская область, Украина) (113 км)
Погода в Славгороде (Могилевская область, Беларусь) (117 км)
Погода в Покошичах (Черниговская область, Украина) (123 км)
Погода в Унече (Брянская область, Россия) (125 км)

Пояснения к столбцам:

Ветер - указаны скорость ветра в м/с - средняя за 10 мин, порывы в срок и между сроками (в фигурных скобках) и направление, откуда дует ветер: С - северный, СВ - северо-восточный, В - восточный, ЮВ - юго-восточный, Ю - южный, ЮЗ - юго-западный, З - западный, СЗ - северо-западный.
Видимость - горизонтальная дальность видимости в метрах или километрах. При видимости от 1 до 10 км при отсутствии осадков обычно наблюдается дымка, при ухудшении видимости до 1 км и менее - туман. В сухую погоду видимость может ухудшаться дымом, пылью или мглою.
Явления - указаны атмосферные явления, наблюдавшиеся в срок или в последний час перед сроком; фигурными скобками обозначены явления, наблюдавшиеся между сроками (за 1-3 часа до срока); квадратными скобками обозначены град или гололедные отложения с указанием их диаметра в мм.
Облачность - указаны через наклонную черту общая и нижняя облачность в баллах и высота нижней границы облаков в метрах; квадратными скобками обозначены формы облаков: Ci - перистые, Cs - перисто-слоистые, Cc - перисто-кучевые, Ac - высококучевые, As - высокослоистые, Sc - слоисто-кучевые, Ns - слоисто-дождевые, Cu - кучевые, Cb - кучево-дождевые. Подробнее классификацию облаков см. в Атласе облаков (PDF).
T - Температура воздуха - температура, измеренная на высоте 2 м над землей.
Td - Температура точки росы - температура, при понижении до которой содержащийся в воздухе водяной пар достигнет насыщения.
f - Относительная влажность воздуха - влажноcть воздуха, измеренная на высоте 2 м над землей.
Te - Эффективная температура - температура, которую ощущает одетый по сезону человек в тени. Характеристика душности погоды. При расчете учитывается влияние влажности воздуха и скорости ветра на теплоощущения человека.
Tes - Эффективная температура на солнце - температура, которую ощущает человек, с поправкой на солнечный нагрев. Характеристика знойности погоды. Зависит от высоты солнца над горизонтом, облачности и скорости ветра. Ночью, в пасмурную погоду, а также при ветре 12 м/с и более поправка равна нулю.
P - Атмосферное давление - приведенное к уровню моря атмосферное давление.
Po - Атмосферное давление - измеренное на уровне метеостанции атмосферное давление.
Tmin - Минимальная температура - минимум температуры воздуха на высоте 2 м над землей.
Tmax - Максимальная температура - максимум температуры воздуха на высоте 2 м над землей.
R - Количество осадков - Количество выпавших осадков за период времени, мм. При наведении курсора мыши на число - период времени, за который выпало указанное количество осадков.
R24 - Количество осадков - Количество выпавших осадков за 24 часа, мм.
S - Снежный покров - Высота снежного покрова, см. При наведении курсора мыши на число - состояние снежного покрова и степень покрытия местности в баллах.